Branson, MO

4:16 AM CDT on July 22, 2017 (GMT -0500)
Branson

Weather History for KBBG - January, 2013

Change the Weather History Date:

Thursday, January 10, 2013

  Actual Average (KHRO) Record (KHRO)
Temperature  
Mean Temperature 46 °F -  
Max Temperature 50 °F 40 °F 71 °F (1990)
Min Temperature 41 °F 21 °F -6 °F (1982)
Degree Days  
Heating Degree Days 20    
Moisture  
Dew Point 45 °F    
Average Humidity 97    
Maximum Humidity 100    
Minimum Humidity 58    
Precipitation  
Precipitation 0.00 in - - ()
Sea Level Pressure  
Sea Level Pressure 30.01 in    
Wind  
Wind Speed 12 mph (SE)    
Max Wind Speed 22 mph    
Max Gust Speed 25 mph    
Visibility 5 miles    
Events Fog , Rain    
Averages and records for this station are not official NWS values.
T = Trace of Precipitation, MM = Missing Value Source: NWS Daily Summary

Daily Weather History Graph

Daily Weather History Graph

Search for Another Location

Airport or City:

Trip Planner

Search our weather history database for the weather conditions in past years. The results will help you decide how hot, cold, wet, or windy it might be!

Date:

Astronomy

Jan. 10, 2013 Rise Set
Actual Time 7:24 AM CST 5:16 PM CST
Civil Twilight 6:56 AM CST 5:44 PM CST
Nautical Twilight 6:24 AM CST 6:16 PM CST
Astronomical Twilight 5:53 AM CST 6:47 PM CST
Moon 6:05 AM CST (1/10) 4:24 PM CST (1/10)
Length of Visible Light 10h 48m
Length of Day
9h 51m
Waning Crescent, 2% of the Moon is Illuminated
Jan 10
Waning Crescent
Jan 11
New
Jan 18
First Quarter
Jan 26
Full
Feb 3
Last Quarter

Hourly Weather History & Observations

Time (CST) Temp. Windchill Dew Point Humidity Pressure Visibility Wind Dir Wind Speed Gust Speed Precip Events Conditions
12:15 AM 48.2 °F - 33.8 °F 58% 30.28 in 10.0 mi ESE 21.9 mph 25.3 mph N/A   Overcast
2:15 AM 41.0 °F 33.9 °F 41.0 °F 100% 30.24 in 3.0 mi East 12.7 mph 18.4 mph N/A Rain Light Rain
2:35 AM 41.0 °F 32.8 °F 41.0 °F 100% 30.24 in 2.5 mi East 16.1 mph 20.7 mph N/A Rain Light Rain
2:55 AM 41.0 °F 32.8 °F 41.0 °F 100% 30.22 in 2.5 mi East 16.1 mph 23.0 mph N/A   Partly Cloudy
3:15 AM 41.0 °F 33.1 °F 41.0 °F 100% 30.23 in 2.5 mi ESE 15.0 mph 20.7 mph N/A Rain Light Rain
3:35 AM 41.0 °F 33.5 °F 41.0 °F 100% 30.21 in 3.0 mi East 13.8 mph 21.9 mph N/A Rain Light Rain
3:55 AM 41.0 °F 33.5 °F 41.0 °F 100% 30.19 in 2.0 mi East 13.8 mph 19.6 mph N/A   Overcast
4:15 AM 41.0 °F 33.1 °F 41.0 °F 100% 30.18 in 3.0 mi ESE 15.0 mph 23.0 mph N/A Rain Light Rain
4:35 AM 41.0 °F 33.5 °F 41.0 °F 100% 30.17 in 1.8 mi ESE 13.8 mph 20.7 mph N/A   Overcast
4:55 AM 41.0 °F 33.5 °F 41.0 °F 100% 30.15 in 1.8 mi ESE 13.8 mph 20.7 mph N/A Rain Light Rain
5:15 AM 41.0 °F 32.8 °F 41.0 °F 100% 30.15 in 5.0 mi ESE 16.1 mph 23.0 mph N/A   Overcast
5:35 AM 41.0 °F 32.8 °F 41.0 °F 100% 30.14 in 4.0 mi ESE 16.1 mph 23.0 mph N/A   Overcast
6:45 AM 41.0 °F 33.9 °F 41.0 °F 100% 30.13 in 1.0 mi ESE 12.7 mph 18.4 mph N/A   Overcast
7:45 AM 41.0 °F 33.5 °F 41.0 °F 100% 30.12 in 0.2 mi ESE 13.8 mph - N/A Fog Fog
8:49 AM 42.8 °F 36.2 °F 42.8 °F 100% 30.09 in 0.2 mi ESE 12.7 mph 19.6 mph N/A Fog Fog
9:56 AM 44.6 °F 38.1 °F 44.6 °F 100% 30.08 in 0.2 mi ESE 13.8 mph - N/A Fog Fog
10:49 AM 44.6 °F 38.1 °F 44.6 °F 100% 30.06 in 0.2 mi ESE 13.8 mph - N/A Fog Fog
11:45 AM 46.4 °F 40.4 °F 46.4 °F 100% 30.00 in 0.2 mi ESE 13.8 mph - N/A Fog Fog
12:45 PM 46.4 °F 42.4 °F 46.4 °F 100% 29.95 in 0.2 mi ESE 8.1 mph - N/A Fog Fog
1:50 PM 46.4 °F 42.4 °F 46.4 °F 100% 29.90 in 0.2 mi ESE 8.1 mph - N/A Fog Fog
2:45 PM 48.2 °F - 48.2 °F 100% 29.89 in 0.1 mi ESE 6.9 mph - N/A Fog Fog
3:51 PM 48.2 °F - 48.2 °F 100% 29.87 in 0.1 mi East 5.8 mph - N/A Fog Fog
4:52 PM 48.2 °F - 48.2 °F 100% 29.86 in 0.1 mi East 5.8 mph - N/A Fog Fog
5:45 PM 48.2 °F - 48.2 °F 100% 29.84 in 0.5 mi ESE 10.4 mph - N/A Fog , Rain Light Rain
6:45 PM 50.0 °F - 50.0 °F 100% 29.87 in 10.0 mi Calm Calm - N/A   Overcast
7:45 PM 48.2 °F - 48.2 °F 100% 29.87 in 10.0 mi Calm Calm - N/A   Overcast
8:15 PM 50.0 °F - 50.0 °F 100% 29.86 in 5.0 mi WSW 3.5 mph - N/A   Overcast
8:35 PM 50.0 °F - 50.0 °F 100% 29.87 in 10.0 mi Calm Calm - N/A   Mostly Cloudy
8:45 PM 48.2 °F - 48.2 °F 100% 29.87 in 10.0 mi Calm Calm - N/A   Overcast
8:55 PM 48.2 °F - 48.2 °F 100% 29.87 in 10.0 mi Calm Calm - N/A   Mostly Cloudy
9:15 PM 48.2 °F - 48.2 °F 100% 29.87 in 10.0 mi Calm Calm - N/A   Partly Cloudy
9:35 PM 48.2 °F - 48.2 °F 100% 29.87 in 10.0 mi SSW 4.6 mph - N/A   Clear
9:55 PM 50.0 °F - 50.0 °F 100% 29.88 in 10.0 mi SW 5.8 mph - N/A   Partly Cloudy
10:15 PM 50.0 °F - 48.2 °F 94% 29.88 in 10.0 mi WSW 8.1 mph - N/A   Mostly Cloudy
10:35 PM 50.0 °F - 46.4 °F 87% 29.88 in 10.0 mi SW 8.1 mph - N/A   Overcast
10:55 PM 50.0 °F - 46.4 °F 87% 29.87 in 10.0 mi WSW 4.6 mph - N/A   Overcast
11:15 PM 48.2 °F - 46.4 °F 93% 29.87 in 10.0 mi SW 6.9 mph - N/A   Mostly Cloudy
11:35 PM 50.0 °F - 46.4 °F 87% 29.88 in 10.0 mi SW 5.8 mph - N/A   Overcast
11:55 PM 50.0 °F - 46.4 °F 87% 29.88 in 10.0 mi SSW 5.8 mph - N/A   Overcast